Weather History for VABB - March, 2012

Change the Weather History Date:

Thursday, March 22, 2012

  Actual Average Record
Temperature  
Mean Temperature 81 °F -  
Max Temperature 91 °F 89 °F - ()
Min Temperature 71 °F 74 °F - ()
Cooling Degree Days 16    
Growing Degree Days 31 (Base 50)    
Moisture  
Dew Point 60 °F    
Average Humidity 47    
Maximum Humidity 65    
Minimum Humidity 25    
Precipitation  
Precipitation 0.00 in - - ()
Sea Level Pressure  
Sea Level Pressure 29.82 in    
Wind  
Wind Speed 5 mph ()    
Max Wind Speed 12 mph    
Max Gust Speed -    
Visibility 1.1 miles    
Events      
T = Trace of Precipitation, MM = Missing Value Source: Averaged Metar Reports

Daily Weather History Graph

Daily Weather History Graph

Search for Another Location

Airport or City:

Trip Planner

Search our weather history database for the weather conditions in past years. The results will help you decide how hot, cold, wet, or windy it might be!

Date:

Astronomy

Mar. 22, 2012 Rise Set
Actual Time 6:40 AM IST 6:50 PM IST
Civil Twilight 6:19 AM IST 7:11 PM IST
Nautical Twilight 5:53 AM IST 7:37 PM IST
Astronomical Twilight 5:28 AM IST 8:03 PM IST
Moon 6:10 AM IST (3/22) 6:41 PM IST (3/22)
Length of Visible Light 12h 52m
Length of Day
12h 09m
Waning Crescent, 0% of the Moon is Illuminated
Mar 22
Waning Crescent
Mar 22
New
Mar 31
First Quarter
Apr 7
Full
Apr 13
Last Quarter

Hourly Weather History & Observations

Time (IST) Temp. Heat Index Dew Point Humidity Pressure Visibility Wind Dir Wind Speed Gust Speed Precip Events Conditions
12:10 AM 78.8 °F - 59.0 °F 51% 29.83 in 1.4 mi NW 5.8 mph - N/A   Unknown
12:40 AM 78.8 °F - 62.6 °F 57% 29.83 in 1.4 mi NNW 4.6 mph - N/A   Unknown
1:10 AM 77.0 °F - 62.6 °F 61% 29.83 in 1.4 mi NNW 5.8 mph - N/A   Unknown
1:40 AM 77.0 °F - 64.4 °F 65% 29.83 in 1.4 mi NNW 4.6 mph - N/A   Unknown
2:10 AM 77.0 °F - 64.4 °F 65% 29.80 in 1.4 mi NW 8.1 mph - N/A   Unknown
2:30 AM 76 °F - 64 °F 58% 29.81 in 1 mi North 5.8 mph - -   Smoke
2:40 AM 77.0 °F - 64.4 °F 65% 29.80 in 1.4 mi NNW 6.9 mph - N/A   Unknown
3:10 AM 77.0 °F - 62.6 °F 61% 29.80 in 1.1 mi NNW 6.9 mph - N/A   Unknown
3:40 AM 75.2 °F - 62.6 °F 65% 29.80 in 1.1 mi North 3.5 mph - N/A   Unknown
4:10 AM 75.2 °F - 62.6 °F 65% 29.80 in 1.1 mi SW 4.6 mph - N/A   Unknown
4:40 AM 75.2 °F - 62.6 °F 65% 29.80 in 1.4 mi NNW 4.6 mph - N/A   Unknown
5:10 AM 75.2 °F - 62.6 °F 65% 29.80 in 1.4 mi NW 6.9 mph - N/A   Unknown
5:30 AM 74 °F - 62 °F 57% 29.81 in 1 mi NW 5.8 mph - -   Smoke
5:40 AM 75.2 °F - 62.6 °F 65% 29.80 in 1.2 mi Calm Calm - N/A   Unknown
6:10 AM 75.2 °F - 62.6 °F 65% 29.80 in 1.2 mi NNW 3.5 mph - N/A   Smoke
6:40 AM 75.2 °F - 62.6 °F 65% 29.83 in 1.2 mi NNW 5.8 mph - N/A   Smoke
7:10 AM 75.2 °F - 62.6 °F 65% 29.83 in 1.1 mi Calm Calm - N/A   Smoke
7:40 AM 75.2 °F - 60.8 °F 61% 29.86 in 1.1 mi Calm Calm - N/A   Smoke
8:30 AM 76 °F - 63 °F 55% 29.88 in 1 mi Calm Calm - -   Smoke
8:40 AM 78.8 °F - 59.0 °F 51% 29.89 in 0.7 mi Calm Calm - N/A   Smoke
9:10 AM 80.6 °F 80.8 °F 57.2 °F 45% 29.89 in 0.7 mi Calm Calm - N/A   Smoke
9:40 AM 82.4 °F 82.0 °F 57.2 °F 42% 29.89 in 0.7 mi Calm Calm - N/A   Smoke
10:10 AM 84.2 °F 84.4 °F 60.8 °F 45% 29.89 in 0.7 mi WSW 6.9 mph - N/A   Smoke
10:40 AM 84.2 °F 84.4 °F 60.8 °F 45% 29.89 in 0.9 mi WSW 8.1 mph - N/A   Unknown
11:10 AM 86.0 °F 86.1 °F 60.8 °F 43% 29.89 in 0.9 mi WSW 6.9 mph - N/A   Unknown
11:30 AM 86 °F - 61 °F 33% 29.89 in 1 mi NNW 4.6 mph - -   Smoke
12:10 PM 87.8 °F 89.4 °F 64.4 °F 46% 29.86 in 0.9 mi WSW 10.4 mph - N/A   Unknown
12:40 PM 87.8 °F 89.4 °F 64.4 °F 46% 29.83 in 1.1 mi West 8.1 mph - N/A   Unknown
1:10 PM 89.6 °F 91.1 °F 64.4 °F 43% 29.83 in 1.1 mi West 9.2 mph - N/A   Unknown
1:40 PM 87.8 °F 90.4 °F 66.2 °F 49% 29.80 in 1.1 mi West 9.2 mph - N/A   Unknown
2:10 PM 89.6 °F 90.1 °F 62.6 °F 40% 29.80 in 1.1 mi West 10.4 mph - N/A   Unknown
2:30 PM 91 °F - 62 °F 29% 29.81 in 1 mi West 9.2 mph - -   Smoke
2:40 PM 89.6 °F 90.1 °F 62.6 °F 40% 29.80 in 1.1 mi West 11.5 mph - N/A   Unknown
3:10 PM 89.6 °F 90.1 °F 62.6 °F 40% 29.77 in 1.1 mi WNW 9.2 mph - N/A   Unknown
3:40 PM 91.4 °F 89.9 °F 57.2 °F 31% 29.77 in 1.2 mi West 10.4 mph - N/A   Unknown
4:10 PM 91.4 °F 89.4 °F 55.4 °F 29% 29.77 in 1.2 mi NW 10.4 mph - N/A   Unknown
4:40 PM 89.6 °F 87.3 °F 53.6 °F 29% 29.77 in 1.2 mi NW 11.5 mph - N/A   Unknown
5:10 PM 87.8 °F 87.1 °F 59.0 °F 38% 29.77 in 1.2 mi NW 8.1 mph - N/A   Unknown
5:30 PM 88 °F - 57 °F 25% 29.77 in 1 mi North 9.2 mph - -   Smoke
5:40 PM 87.8 °F 86.5 °F 57.2 °F 35% 29.77 in 1.4 mi NW 11.5 mph - N/A   Unknown
6:10 PM 86.0 °F 84.5 °F 55.4 °F 35% 29.77 in 1.4 mi NNW 11.5 mph - N/A   Unknown
6:40 PM 86.0 °F 84.5 °F 55.4 °F 35% 29.77 in 1.4 mi WNW 6.9 mph - N/A   Unknown
7:10 PM 84.2 °F 83.5 °F 57.2 °F 40% 29.80 in 1.4 mi WNW 8.1 mph - N/A   Unknown
7:40 PM 84.2 °F 83.5 °F 57.2 °F 40% 29.80 in 1.4 mi WNW 8.1 mph - N/A   Unknown
8:10 PM 84.2 °F 83.5 °F 57.2 °F 40% 29.80 in 1.4 mi NW 4.6 mph - N/A   Unknown
8:30 PM 80 °F - 59 °F 39% 29.82 in 1 mi North 5.8 mph - -   Smoke
8:40 PM 84.2 °F 83.0 °F 55.4 °F 37% 29.83 in 1.2 mi NW 4.6 mph - N/A   Unknown
9:10 PM 82.4 °F 81.7 °F 55.4 °F 39% 29.83 in 1.1 mi Calm Calm - N/A   Haze
9:40 PM 82.4 °F 81.7 °F 55.4 °F 39% 29.86 in 1.1 mi NW 3.5 mph - N/A   Unknown
10:10 PM 82.4 °F 81.4 °F 53.6 °F 37% 29.86 in 1.1 mi NW 4.6 mph - N/A   Unknown
10:40 PM 80.6 °F 80.3 °F 53.6 °F 39% 29.86 in 1.1 mi Calm Calm - N/A   Unknown
11:10 PM 80.6 °F - 50.0 °F 34% 29.86 in 1.1 mi Calm Calm - N/A   Unknown
11:30 PM 73 °F - 57 °F 46% 29.87 in 1 mi Calm Calm - -   Smoke
11:40 PM 80.6 °F 81.5 °F 60.8 °F 51% 29.86 in 1.6 mi WNW 8.1 mph - N/A   Unknown